Weather History for Ada, OK

Change the Weather History Date:

Wednesday, May 2, 2012

  Actual Average Record
Temperature  
Mean Temperature 71 °F -  
Max Temperature 78 °F 76 °F 95 °F (1920)
Min Temperature 64 °F 52 °F 37 °F (2011)
Cooling Degree Days 6    
Growing Degree Days 21 (Base 50)    
Moisture  
Dew Point 66 °F    
Average Humidity 84    
Maximum Humidity 100    
Minimum Humidity 69    
Precipitation  
Precipitation 0.00 in - - ()
Sea Level Pressure  
Sea Level Pressure 29.85 in    
Wind  
Wind Speed 14 mph (South)    
Max Wind Speed 21 mph    
Max Gust Speed 26 mph    
Visibility 10 miles    
Events      
Averages and records for this station are not official NWS values.
T = Trace of Precipitation, MM = Missing Value Source: NWS Daily Summary

Daily Weather History Graph

Daily Weather History Graph

Search for Another Location

Airport:

Trip Planner

Search our weather history database for the weather conditions in past years. The results will help you decide how hot, cold, wet, or windy it might be!

Date:

Astronomy

May. 02, 2012 Rise Set
Actual Time 6:34 AM CDT 8:13 PM CDT
Civil Twilight 6:07 AM CDT 8:40 PM CDT
Nautical Twilight 5:34 AM CDT 9:12 PM CDT
Astronomical Twilight 5:00 AM CDT 9:47 PM CDT
Moon 4:34 PM CDT (5/2) 3:55 AM CDT (5/2)
Length of Visible Light 14h 32m
Length of Day
13h 38m
Waxing Gibbous, 83% of the Moon is Illuminated
May 2
Waxing Gibbous
May 5
Full
May 12
Last Quarter
May 20
New
May 28
First Quarter

Hourly Weather History & Observations

Time (CDT) Temp. Dew Point Humidity Pressure Visibility Wind Dir Wind Speed Gust Speed Precip Events Conditions
12:15 AM 69.8 °F 64.4 °F 83% 29.81 in 10.0 mi SSE 12.7 mph 19.6 mph N/A   Clear
12:35 AM 69.8 °F 64.4 °F 83% 29.82 in 10.0 mi South 16.1 mph 20.7 mph N/A   Clear
12:55 AM 69.8 °F 64.4 °F 83% 29.82 in 10.0 mi South 16.1 mph 23.0 mph N/A   Clear
1:15 AM 69.8 °F 62.6 °F 78% 29.82 in 10.0 mi South 11.5 mph 23.0 mph N/A   Clear
1:35 AM 69.8 °F 62.6 °F 78% 29.82 in 10.0 mi South 13.8 mph 17.3 mph N/A   Clear
1:55 AM 69.8 °F 62.6 °F 78% 29.82 in 10.0 mi South 11.5 mph 17.3 mph N/A   Clear
2:15 AM 68.0 °F 62.6 °F 83% 29.82 in 10.0 mi South 11.5 mph 17.3 mph N/A   Clear
2:35 AM 68.0 °F 62.6 °F 83% 29.82 in 10.0 mi South 12.7 mph 17.3 mph N/A   Clear
2:55 AM 68.0 °F 62.6 °F 83% 29.82 in 10.0 mi South 12.7 mph - N/A   Clear
3:15 AM 68.0 °F 62.6 °F 83% 29.82 in 10.0 mi South 12.7 mph 18.4 mph N/A   Clear
3:35 AM 68.0 °F 62.6 °F 83% 29.82 in 10.0 mi South 11.5 mph - N/A   Clear
3:55 AM 66.2 °F 64.4 °F 94% 29.82 in 10.0 mi South 12.7 mph - N/A   Clear
4:15 AM 66.2 °F 64.4 °F 94% 29.82 in 10.0 mi SSE 13.8 mph - N/A   Clear
4:35 AM 66.2 °F 64.4 °F 94% 29.82 in 10.0 mi South 12.7 mph 18.4 mph N/A   Clear
4:55 AM 66.2 °F 64.4 °F 94% 29.82 in 10.0 mi South 15.0 mph 18.4 mph N/A   Clear
5:15 AM 66.2 °F 64.4 °F 94% 29.82 in 10.0 mi South 13.8 mph 18.4 mph N/A   Clear
5:35 AM 64.4 °F 64.4 °F 100% 29.83 in 10.0 mi South 12.7 mph - N/A   Clear
5:55 AM 64.4 °F 64.4 °F 100% 29.83 in 10.0 mi South 12.7 mph 18.4 mph N/A   Clear
6:15 AM 64.4 °F 64.4 °F 100% 29.84 in 10.0 mi South 11.5 mph - N/A   Clear
6:35 AM 64.4 °F 64.4 °F 100% 29.84 in 10.0 mi South 13.8 mph - N/A   Clear
6:55 AM 64.4 °F 64.4 °F 100% 29.85 in 10.0 mi South 15.0 mph 18.4 mph N/A   Clear
7:15 AM 64.4 °F 64.4 °F 100% 29.85 in 10.0 mi South 11.5 mph 19.6 mph N/A   Clear
7:35 AM 66.2 °F 64.4 °F 94% 29.85 in 10.0 mi South 13.8 mph 19.6 mph N/A   Clear
7:55 AM 66.2 °F 64.4 °F 94% 29.86 in 10.0 mi South 13.8 mph 20.7 mph N/A   Clear
8:15 AM 68.0 °F 66.2 °F 94% 29.86 in 10.0 mi South 16.1 mph 20.7 mph N/A   Clear
8:35 AM 68.0 °F 66.2 °F 94% 29.86 in 10.0 mi South 16.1 mph 19.6 mph N/A   Clear
8:55 AM 69.8 °F 64.4 °F 83% 29.87 in 10.0 mi South 12.7 mph 23.0 mph N/A   Scattered Clouds
9:15 AM 69.8 °F 64.4 °F 83% 29.87 in 10.0 mi South 16.1 mph 23.0 mph N/A   Scattered Clouds
9:35 AM 69.8 °F 66.2 °F 88% 29.88 in 10.0 mi South 18.4 mph 23.0 mph N/A   Scattered Clouds
9:55 AM 69.8 °F 66.2 °F 88% 29.88 in 10.0 mi South 17.3 mph 23.0 mph N/A   Mostly Cloudy
10:15 AM 71.6 °F 66.2 °F 83% 29.89 in 10.0 mi South 18.4 mph 24.2 mph N/A   Mostly Cloudy
10:35 AM 71.6 °F 68.0 °F 88% 29.89 in 10.0 mi South 11.5 mph 21.9 mph N/A   Mostly Cloudy
10:55 AM 71.6 °F 66.2 °F 83% 29.89 in 10.0 mi South 11.5 mph - N/A   Mostly Cloudy
11:15 AM 73.4 °F 68.0 °F 83% 29.89 in 10.0 mi South 15.0 mph 24.2 mph N/A   Mostly Cloudy
11:35 AM 73.4 °F 68.0 °F 83% 29.89 in 10.0 mi South 17.3 mph - N/A   Scattered Clouds
11:55 AM 75.2 °F 68.0 °F 78% 29.89 in 10.0 mi South 15.0 mph 20.7 mph N/A   Scattered Clouds
12:15 PM 77.0 °F 68.0 °F 74% 29.89 in 10.0 mi South 17.3 mph 20.7 mph N/A   Scattered Clouds
12:35 PM 77.0 °F 68.0 °F 74% 29.88 in 10.0 mi South 17.3 mph 21.9 mph N/A   Mostly Cloudy
12:55 PM 77.0 °F 69.8 °F 78% 29.87 in 10.0 mi South 15.0 mph 21.9 mph N/A   Scattered Clouds
1:15 PM 77.0 °F 68.0 °F 74% 29.87 in 10.0 mi South 16.1 mph 20.7 mph N/A   Scattered Clouds
1:35 PM 77.0 °F 68.0 °F 74% 29.87 in 10.0 mi South 18.4 mph 25.3 mph N/A   Mostly Cloudy
1:55 PM 77.0 °F 68.0 °F 74% 29.87 in 10.0 mi South 16.1 mph 23.0 mph N/A   Overcast
2:15 PM 77.0 °F 68.0 °F 74% 29.86 in 10.0 mi South 16.1 mph 23.0 mph N/A   Overcast
2:35 PM 77.0 °F 68.0 °F 74% 29.86 in 10.0 mi South 15.0 mph - N/A   Overcast
2:55 PM 77.0 °F 68.0 °F 74% 29.85 in 10.0 mi South 17.3 mph 24.2 mph N/A   Overcast
3:15 PM 78.8 °F 68.0 °F 69% 29.85 in 10.0 mi SSE 20.7 mph 24.2 mph N/A   Overcast
3:35 PM 78.8 °F 69.8 °F 74% 29.84 in 10.0 mi South 18.4 mph 23.0 mph N/A   Mostly Cloudy
3:55 PM 78.8 °F 68.0 °F 69% 29.84 in 10.0 mi South 18.4 mph 24.2 mph N/A   Scattered Clouds
4:15 PM 77.0 °F 68.0 °F 74% 29.83 in 10.0 mi South 15.0 mph 25.3 mph N/A   Mostly Cloudy
4:35 PM 78.8 °F 68.0 °F 69% 29.83 in 10.0 mi South 20.7 mph 26.5 mph N/A   Scattered Clouds
4:55 PM 78.8 °F 68.0 °F 69% 29.83 in 10.0 mi South 19.6 mph - N/A   Scattered Clouds
5:15 PM 77.0 °F 68.0 °F 74% 29.82 in 10.0 mi South 19.6 mph - N/A   Scattered Clouds
5:35 PM 77.0 °F 68.0 °F 74% 29.82 in 10.0 mi South 16.1 mph 24.2 mph N/A   Scattered Clouds
5:55 PM 77.0 °F 68.0 °F 74% 29.82 in 10.0 mi SSE 17.3 mph 23.0 mph N/A   Mostly Cloudy
6:15 PM 77.0 °F 68.0 °F 74% 29.82 in 10.0 mi South 16.1 mph 20.7 mph N/A   Scattered Clouds
6:35 PM 77.0 °F 68.0 °F 74% 29.82 in 10.0 mi South 16.1 mph 19.6 mph N/A   Scattered Clouds
6:55 PM 75.2 °F 68.0 °F 78% 29.81 in 10.0 mi South 12.7 mph 18.4 mph N/A   Clear
7:15 PM 73.4 °F 66.2 °F 78% 29.81 in 10.0 mi South 11.5 mph - N/A   Clear
7:35 PM 73.4 °F 66.2 °F 78% 29.81 in 10.0 mi South 10.4 mph - N/A   Clear
7:55 PM 73.4 °F 68.0 °F 83% 29.82 in 10.0 mi South 9.2 mph 16.1 mph N/A   Clear
8:15 PM 71.6 °F 68.0 °F 88% 29.82 in 10.0 mi South 5.8 mph - N/A   Clear
8:35 PM 71.6 °F 68.0 °F 88% 29.83 in 10.0 mi South 6.9 mph - N/A   Clear
8:55 PM 69.8 °F 66.2 °F 88% 29.84 in 10.0 mi SSE 4.6 mph - N/A   Scattered Clouds
9:15 PM 69.8 °F 66.2 °F 88% 29.84 in 10.0 mi SE 5.8 mph - N/A   Scattered Clouds
9:35 PM 69.8 °F 68.0 °F 94% 29.85 in 10.0 mi SE 6.9 mph - N/A   Scattered Clouds
9:55 PM 69.8 °F 68.0 °F 94% 29.85 in 10.0 mi SE 8.1 mph - N/A   Clear
10:15 PM 69.8 °F 68.0 °F 94% 29.86 in 10.0 mi SE 8.1 mph - N/A   Clear
10:35 PM 69.8 °F 66.2 °F 88% 29.87 in 10.0 mi SSE 9.2 mph - N/A   Clear
10:55 PM 69.8 °F 66.2 °F 88% 29.87 in 10.0 mi SSE 9.2 mph - N/A   Clear
11:15 PM 69.8 °F 66.2 °F 88% 29.87 in 10.0 mi SSE 10.4 mph 16.1 mph N/A   Clear
11:35 PM 68.0 °F 66.2 °F 94% 29.87 in 10.0 mi SSE 9.2 mph - N/A   Clear
11:55 PM 68.0 °F 66.2 °F 94% 29.88 in 10.0 mi SSE 9.2 mph - N/A   Clear